| time (UTC) | temp C | wind direction | speed KPH | gust KPH | rain 1hr cm | rain 24hr cm | rain mn cm | humidity % | barometer mb |
| 20260902142022 | 15 | 107 | 4.8 | 8.0 | 0.00 | 0.00 | 0.00 | 81 | |
| 20260902141033 | 15 | 99 | 6.4 | 9.7 | 0.00 | 0.00 | 0.00 | 82 | |
| 20260902140019 | 15 | 96 | 6.4 | 9.7 | 0.00 | 0.00 | 0.00 | 82 | |
| 20260902135027 | 15 | 98 | 3.2 | 6.4 | 0.00 | 0.00 | 0.00 | 82 | |
| 20260902134036 | 15 | 120 | 4.8 | 6.4 | 0.00 | 0.00 | 0.00 | 82 | |
| 20260902133025 | 15 | 113 | 3.2 | 6.4 | 0.00 | 0.00 | 0.00 | 81 | |
| 20260902132053 | 15 | 110 | 3.2 | 6.4 | 0.00 | 0.00 | 0.00 | 81 | |
| 20260902131024 | 15 | 105 | 6.4 | 8.0 | 0.00 | 0.00 | 0.00 | 80 | |
| 20260902130033 | 15 | 89 | 6.4 | 11.3 | 0.00 | 0.00 | 0.00 | 80 | |
| 20260902125019 | 16 | 82 | 6.4 | 11.3 | 0.00 | 0.00 | 0.00 | 79 | |
| 20260902124027 | 16 | 100 | 6.4 | 9.7 | 0.00 | 0.00 | 0.00 | 79 | |
| 20260902123035 | 16 | 96 | 4.8 | 6.4 | 0.00 | 0.00 | 0.00 | 79 | |
| 20260902122024 | 16 | 113 | 3.2 | 4.8 | 0.00 | 0.00 | 0.00 | 79 | |
| 20260902121032 | 16 | 122 | 4.8 | 8.0 | 0.00 | 0.00 | 0.00 | 79 | |
| 20260902120024 | 16 | 89 | 6.4 | 8.0 | 0.00 | 0.00 | 0.00 | 79 | |
| 20260902115033 | 16 | 90 | 4.8 | 6.4 | 0.00 | 0.00 | 0.00 | 79 | |
| 20260902114019 | 16 | 117 | 6.4 | 11.3 | 0.00 | 0.00 | 0.00 | 79 | |
| 20260902113027 | 16 | 108 | 6.4 | 9.7 | 0.00 | 0.00 | 0.00 | 79 | |
| 20260902112035 | 15 | 103 | 6.4 | 14.5 | 0.00 | 0.00 | 0.00 | 80 | |
| 20260902111024 | 15 | 108 | 6.4 | 11.3 | 0.00 | 0.00 | 0.00 | 80 | |
| 20260902110033 | 15 | 121 | 9.7 | 14.5 | 0.00 | 0.00 | 0.00 | 81 | |
| 20260902105024 | 15 | 109 | 6.4 | 11.3 | 0.00 | 0.00 | 0.00 | 82 | |
| 20260902104030 | 15 | 123 | 8.0 | 12.9 | 0.00 | 0.00 | 0.00 | 82 | |
| 20260902103019 | 15 | 133 | 6.4 | 9.7 | 0.00 | 0.00 | 0.00 | 83 | |
| 20260902102027 | 15 | 134 | 8.0 | 11.3 | 0.00 | 0.00 | 0.00 | 83 | |
| 20260902101035 | 15 | 151 | 4.8 | 8.0 | 0.00 | 0.00 | 0.00 | 83 | |
| 20260902100024 | 15 | 133 | 4.8 | 6.4 | 0.00 | 0.00 | 0.00 | 83 | |
| 20260902095033 | 15 | 139 | 6.4 | 9.7 | 0.00 | 0.00 | 0.00 | 83 | |
| 20260902094022 | 15 | 111 | 4.8 | 8.0 | 0.00 | 0.00 | 0.00 | 82 | |
| 20260902093048 | 15 | 113 | 6.4 | 8.0 | 0.00 | 0.00 | 0.00 | 81 | |
| 20260902092019 | 15 | 109 | 4.8 | 8.0 | 0.00 | 0.00 | 0.00 | 79 | |
| 20260902091027 | 15 | 88 | 6.4 | 9.7 | 0.00 | 0.00 | 0.00 | 78 | |
| 20260902090035 | 15 | 123 | 6.4 | 9.7 | 0.00 | 0.00 | 0.00 | 78 | |
| 20260902085045 | 15 | 139 | 8.0 | 9.7 | 0.00 | 0.00 | 0.00 | 79 | |
| 20260902084032 | 15 | 120 | 6.4 | 11.3 | 0.00 | 0.00 | 0.00 | 80 | |
| 20260902083041 | 15 | 151 | 6.4 | 9.7 | 0.00 | 0.00 | 0.00 | 80 | |
| 20260902082050 | 15 | 176 | 3.2 | 4.8 | 0.00 | 0.00 | 0.00 | 81 | |
| 20260902081019 | 15 | 167 | 3.2 | 6.4 | 0.00 | 0.00 | 0.00 | 82 | |
| 20260902080047 | 15 | 163 | 3.2 | 4.8 | 0.00 | 0.00 | 0.00 | 82 | |
| 20260902075035 | 15 | 165 | 3.2 | 6.4 | 0.00 | 0.00 | 0.00 | 82 | |
| 20260902074027 | 15 | 136 | 4.8 | 9.7 | 0.00 | 0.00 | 0.00 | 83 | |
| 20260902073052 | 15 | 140 | 6.4 | 9.7 | 0.00 | 0.00 | 0.00 | 83 | |
| 20260902072027 | 15 | 131 | 6.4 | 11.3 | 0.00 | 0.00 | 0.00 | 83 | |
| 20260902071049 | 15 | 140 | 4.8 | 6.4 | 0.00 | 0.00 | 0.00 | 83 | |
| 20260902070019 | 15 | 133 | 4.8 | 8.0 | 0.00 | 0.00 | 0.00 | 82 | |
| 20260902065027 | 16 | 128 | 8.0 | 9.7 | 0.00 | 0.00 | 0.00 | 82 | |
| 20260902064034 | 16 | 139 | 8.0 | 11.3 | 0.00 | 0.00 | 0.00 | 81 | |
| 20260902063024 | 16 | 155 | 9.7 | 12.9 | 0.00 | 0.00 | 0.00 | 80 | |
| 20260902062052 | 16 | 163 | 9.7 | 16.1 | 0.00 | 0.00 | 0.00 | 79 | |
| 20260902061022 | 16 | 133 | 8.0 | 12.9 | 0.00 | 0.00 | 0.00 | 79 | |
| 20260902060030 | 16 | 142 | 9.7 | 16.1 | 0.00 | 0.00 | 0.00 | 79 | |
| 20260902055037 | 16 | 129 | 9.7 | 11.3 | 0.00 | 0.00 | 0.00 | 79 | |
| 20260902054027 | 16 | 129 | 8.0 | 11.3 | 0.00 | 0.00 | 0.00 | 79 | |
| 20260902053035 | 16 | 110 | 6.4 | 8.0 | 0.00 | 0.00 | 0.00 | 78 | |
| 20260902052024 | 16 | 140 | 6.4 | 11.3 | 0.00 | 0.00 | 0.00 | 78 | |
| 20260902051033 | 16 | 124 | 4.8 | 8.0 | 0.00 | 0.00 | 0.00 | 77 |